Regional Weather Roundup
Issued by NWS

Home | Current Version | Previous Version | Text Only | Print | Product List | Glossary On
Versions: 1 2 3 4 5 6 7 8 9 10 11 12 13 14 15 16 17 18 19 20 21 22 23 24 25 26 27 28 29 30 31 32 33 34 35 36 37 38 39 40 41 42 43 44 45 46 47 48 49 50
000
ASUS43 KLMK 092310
RWRKY
KENTUCKY REGIONAL WEATHER ROUNDUP
NATIONAL WEATHER SERVICE LOUISVILLE KY
600 PM EST TUE FEB 09 2016

NOTE "FAIR" INDICATES FEW OR NO CLOUDS BELOW 12,000 FEET
WITH NO SIGNIFICANT WEATHER AND/OR OBSTRUCTIONS TO VISIBILITY.

KYZ001>023-026-027-061>063-070>075-100000-
WESTERN AND SOUTH CENTRAL KENTUCKY

CITY           SKY/WX    TMP DP  RH WIND       PRES   REMARKS
PADUCAH        CLOUDY    24  14  65 NW8       30.07R WCI  15
HENDERSON      CLOUDY    21  12  68 W14       30.04R WCI   8
OWENSBORO      LGT SNOW  21  16  79 NW16      30.03R WCI   7
HOPKINSVILLE   FLURRIES  21  16  79 NW10      30.03S WCI  10
BOWLING GREEN  LGT SNOW  23  15  71 W12       30.02R WCI  12
GLASGOW        CLOUDY    22  15  74 NW9       29.98R WCI  12
$$

KYZ024-025-028>034-038-045-046-053-100000-
NORTH CENTRAL KENTUCKY

CITY           SKY/WX    TMP DP  RH WIND       PRES   REMARKS
LOUISVILLE/SDF CLOUDY    24  14  65 W18G26    29.95R WCI  10
LOUISVILLE/LOU CLOUDY    24  15  68 W12       29.95R WCI  13
FORT KNOX      LGT SNOW  21  14  74 W12G24    29.94R WCI   9
$$

KYZ035>037-039>044-047>052-055>060-089>105-100000-
NORTHEAST KENTUCKY

CITY           SKY/WX    TMP DP  RH WIND       PRES   REMARKS
LEXINGTON      FLURRIES  22  14  71 W17       29.88R WCI   8
COVINGTON      LGT SNOW  23  18  81 W13       29.85R WCI  11
FRANKFORT      NOT AVBL
$$

KYZ054-064>069-076>088-106>120-100000-
SOUTHEAST KENTUCKY

CITY           SKY/WX    TMP DP  RH WIND       PRES   REMARKS
JACKSON        CLOUDY    22  13  68 W9        29.84R WCI  12
LONDON         LGT SNOW  22  15  75 W7        29.89R WCI  13
SOMERSET       CLOUDY    23  18  80 W9        29.93R WCI  13
MIDDLESBORO    LGT SNOW  24  18  78 W5        29.90R WCI  18
MONTICELLO     LGT SNOW  23  18  81 W12       29.94R WCI  12
$$




USA.gov is the U.S. government's official web portal to all federal, state and local government web resources and services.